Location: Blanot
(47.1713°N, 4.2340°E)
Time: 07:15:32
(UTC+00:00)

N. Korean satellite - Visible Passes

Search period start: 04 March 2021 00:00
Search period end: 14 March 2021 00:00
Orbit: 451 x 502 km, 97.2° (Epoch: 03 March)

Date Brightness Start Highest point End Pass type
(mag) Time Alt. Az. Time Alt. Az. Time Alt. Az.
04 Mar 7.4 04:58:30 10° NNE 05:01:59 52° E 05:05:28 10° S visible
05 Mar 9.0 04:32:07 10° NE 04:35:07 25° E 04:38:08 10° SSE visible
06 Mar 9.9 04:06:28 10° ENE 04:08:09 13° E 04:09:51 10° ESE visible
06 Mar 6.8 05:38:17 10° N 05:41:43 48° WNW 05:45:11 10° SSW visible
07 Mar 6.7 05:11:24 10° NNE 05:14:59 78° ESE 05:18:35 10° S visible
08 Mar 8.3 04:44:49 10° NNE 04:48:09 35° E 04:51:30 10° SSE visible
09 Mar 9.6 04:18:40 10° NE 04:21:13 18° E 04:23:45 10° SE visible
10 Mar 6.5 05:24:19 10° N 05:27:54 73° WNW 05:31:31 10° SSW visible
11 Mar 7.5 04:57:33 10° NNE 05:01:05 52° E 05:04:38 10° S visible
12 Mar 9.0 04:31:08 10° NE 04:34:10 25° E 04:37:14 10° SSE visible
13 Mar 9.9 04:05:24 10° ENE 04:07:09 13° E 04:08:54 10° ESE visible
